Santa Monica, CA

5:45 PM PDT on August 27, 2016 (GMT -0700)
Santa Monica Municipal

Weather History for KSMO - July, 2013

Change the Weather History Date:

Monday, July 1, 2013

  Actual Average Record
Temperature  
Mean Temperature 74 °F -  
Max Temperature 86 °F 79 °F 102 °F (1985)
Min Temperature 66 °F 60 °F 47 °F (1963)
Cooling Degree Days 9    
Growing Degree Days 24 (Base 50)    
Moisture  
Dew Point 64 °F    
Average Humidity 76    
Maximum Humidity 87    
Minimum Humidity 53    
Precipitation  
Precipitation 0.00 in - - ()
Sea Level Pressure  
Sea Level Pressure 29.85 in    
Wind  
Wind Speed 3 mph (SSW)    
Max Wind Speed 10 mph    
Max Gust Speed -    
Visibility 9 miles    
Events      
Averages and records for this station are not official NWS values.
T = Trace of Precipitation, MM = Missing Value Source: NWS Daily Summary

Daily Weather History Graph

Daily Weather History Graph

Search for Another Location

Airport or City:

Trip Planner

Search our weather history database for the weather conditions in past years. The results will help you decide how hot, cold, wet, or windy it might be!

Date:

Astronomy

Jul. 01, 2013 Rise Set
Actual Time 5:46 AM PDT 8:09 PM PDT
Civil Twilight 5:17 AM PDT 8:38 PM PDT
Nautical Twilight 4:41 AM PDT 9:13 PM PDT
Astronomical Twilight 4:02 AM PDT 9:52 PM PDT
Moon 1:08 AM PDT (7/1) 2:37 PM PDT (7/1)
Length of Visible Light 15h 20m
Length of Day
14h 22m
Waning Crescent, 34% of the Moon is Illuminated
Jul 1
Waning Crescent
Jul 8
New
Jul 15
First Quarter
Jul 22
Full
Jul 29
Last Quarter

Hourly Weather History & Observations

Time (PDT) Temp. Heat Index Dew Point Humidity Pressure Visibility Wind Dir Wind Speed Gust Speed Precip Events Conditions
12:51 AM 70.0 °F - 63.0 °F 78% 29.81 in 10.0 mi Calm Calm - N/A   Clear
1:51 AM 69.1 °F - 64.0 °F 84% 29.81 in 8.0 mi Calm Calm - N/A   Clear
2:51 AM 68.0 °F - 64.0 °F 87% 29.81 in 8.0 mi Calm Calm - N/A   Clear
3:51 AM 66.9 °F - 63.0 °F 87% 29.82 in 8.0 mi Calm Calm - N/A   Clear
4:51 AM 66.9 °F - 63.0 °F 87% 29.82 in 10.0 mi SE 3.5 mph - N/A   Clear
5:51 AM 66.9 °F - 63.0 °F 87% 29.84 in 7.0 mi Calm Calm - N/A   Clear
6:51 AM 68.0 °F - 64.0 °F 87% 29.85 in 7.0 mi Calm Calm - N/A   Clear
7:51 AM 70.0 °F - 64.0 °F 81% 29.86 in 10.0 mi ESE 3.5 mph - N/A   Clear
8:51 AM 73.9 °F - 64.0 °F 71% 29.86 in 10.0 mi Calm Calm - N/A   Clear
9:51 AM 75.0 °F - 64.0 °F 69% 29.88 in 10.0 mi SSW 4.6 mph - N/A   Clear
10:51 AM 73.0 °F - 64.0 °F 73% 29.87 in 10.0 mi West 8.1 mph - N/A   Clear
11:42 AM 77.0 °F - 64.4 °F 65% 29.89 in - SW 8.1 mph - N/A   Partly Cloudy
11:51 AM 75.0 °F - 64.0 °F 69% 29.89 in - SSW 9.2 mph - N/A   Clear
12:51 PM 73.9 °F - 64.0 °F 71% 29.90 in 10.0 mi SW 8.1 mph - N/A   Clear
1:51 PM 75.9 °F - 64.0 °F 67% 29.89 in 10.0 mi Variable 3.5 mph - N/A   Clear
2:51 PM 82.0 °F 83.4 °F 64.0 °F 54% 29.86 in 10.0 mi Variable 5.8 mph - N/A   Clear
3:51 PM 82.9 °F 84.4 °F 64.0 °F 53% 29.83 in 10.0 mi SSW 9.2 mph - N/A   Scattered Clouds
4:51 PM 75.0 °F - 64.9 °F 71% 29.84 in 10.0 mi SW 10.4 mph - N/A   Partly Cloudy
5:51 PM 75.0 °F - 64.0 °F 69% 29.82 in 10.0 mi SW 8.1 mph - N/A   Scattered Clouds
6:51 PM 71.1 °F - 64.0 °F 78% 29.85 in 10.0 mi WSW 8.1 mph - N/A   Partly Cloudy
7:51 PM 70.0 °F - 64.0 °F 81% 29.85 in 9.0 mi WSW 4.6 mph - N/A   Clear
8:51 PM 69.1 °F - 64.0 °F 84% 29.86 in 10.0 mi SSW 3.5 mph - N/A   Clear
9:51 PM 69.1 °F - 63.0 °F 81% 29.88 in 10.0 mi SW 3.5 mph - N/A   Clear
10:51 PM 68.0 °F - 64.0 °F 87% 29.88 in 9.0 mi Calm Calm - N/A   Clear
11:51 PM 68.0 °F - 64.0 °F 87% 29.88 in 10.0 mi South 3.5 mph - N/A   Clear